JH0HYX-13 Weather Reports


Display with metric or nautical units.
time (UTC)temp
F
wind
direction
speed
MPH
gust
MPH
rain 1hr
in
rain 24hr
in
rain mn
in
humidity
%
barometer
mb
20190318195330 42 220 7.0 13.0 0.00 0.00 0.00 47 1017.2
20190318193333 43 242 10.0 16.0 0.00 0.00 0.00 48 1017.2
20190318191350 43 207 6.0 13.0 0.00 0.00 0.00 48 1017.2
20190318185349 42 159 5.0 14.0 0.00 0.00 0.00 52 1017.2
20190318183351 42 182 7.0 15.0 0.00 0.00 0.00 56 1017.2
20190318181327 43 214 9.0 16.0 0.00 0.00 0.00 49 1017.3
20190318180339 43 205 6.0 11.0 0.00 0.00 0.00 41 1017.2
20190318175328 43 163 7.0 13.0 0.00 0.00 0.00 40 1017.3
20190318174338 43 169 6.0 13.0 0.00 0.00 0.00 42 1017.5
20190318172339 43 201 4.0 16.0 0.00 0.00 0.00 47 1017.8
20190318171328 43 184 8.0 13.0 0.00 0.00 0.00 49 1018.0
20190318163405 43 147 7.0 20.0 0.00 0.00 0.00 59 1018.5
20190318162334 43 154 9.0 20.0 0.00 0.00 0.00 61 1018.5
20190318161402 43 164 8.0 22.0 0.00 0.00 0.00 62 1018.6
20190318155418 43 162 7.0 18.0 0.00 0.00 0.00 63 1018.6
20190318154327 43 161 8.0 16.0 0.00 0.00 0.00 64 1018.8
20190318153337 43 196 6.0 16.0 0.00 0.00 0.00 64 1019.0
20190318152327 43 168 6.0 16.0 0.00 0.00 0.00 66 1018.9
20190318151357 43 190 10.0 21.0 0.00 0.00 0.00 65 1019.0
20190318150410 43 153 7.0 22.0 0.00 0.00 0.00 65 1019.1
20190318145335 43 200 12.0 22.0 0.00 0.00 0.00 67 1019.2
20190318144345 43 159 4.0 18.0 0.00 0.00 0.00 67 1019.2
20190318141334 43 141 8.0 17.0 0.00 0.00 0.00 67 1019.6
20190318140343 43 159 7.0 20.0 0.00 0.00 0.00 66 1019.7
20190318135332 44 142 13.0 24.0 0.00 0.00 0.00 66 1019.7
20190318134401 44 163 14.0 20.0 0.00 0.00 0.00 66 1019.8
20190318133334 44 137 11.0 17.0 0.00 0.00 0.00 66 1019.9
20190318132405 44 190 10.0 20.0 0.00 0.00 0.00 66 1019.0
20190318131353 44 186 9.0 20.0 0.00 0.00 0.00 66 1019.0
20190318130442 44 163 8.0 17.0 0.00 0.00 0.00 66 1019.1
20190318122335 45 159 8.0 23.0 0.00 0.00 0.00 63 1019.1
20190318121325 45 167 11.0 20.0 0.00 0.00 0.00 62 1019.0
20190318120334 46 165 10.0 19.0 0.00 0.00 0.00 61 1019.0
20190318114336 46 172 9.0 18.0 0.00 0.00 0.00 60 1018.7
20190318111330 47 167 8.0 16.0 0.00 0.00 0.00 56 1018.8
20190318105329 47 187 2.0 15.0 0.00 0.00 0.00 53 1018.8
20190318104343 47 175 6.0 12.0 0.00 0.00 0.00 53 1018.7
20190318103352 47 182 5.0 12.0 0.00 0.00 0.00 52 1018.7
20190318102339 48 195 8.0 15.0 0.00 0.00 0.00 51 1018.4
20190318101328 48 161 6.0 11.0 0.00 0.00 0.00 50 1018.2
20190318100342 48 160 4.0 11.0 0.00 0.00 0.00 47 1018.2
20190318095349 48 185 4.0 9.0 0.00 0.00 0.00 47 1018.0
20190318094338 49 196 4.0 9.0 0.00 0.00 0.00 49 1017.9
20190318093408 49 176 3.0 9.0 0.00 0.00 0.00 47 1017.9
20190318092336 50 174 3.0 6.0 0.00 0.00 0.00 43 1017.9
20190318091330 50 196 4.0 9.0 0.00 0.00 0.00 38 1017.8
20190318085407 51 209 10.0 17.0 0.00 0.00 0.00 30 1017.7
20190318084335 51 205 8.0 16.0 0.00 0.00 0.00 30 1017.6
20190318082337 52 204 12.0 20.0 0.00 0.00 0.00 29 1017.8
20190318081326 52 212 11.0 22.0 0.00 0.00 0.00 29 1017.9
20190318080335 53 222 8.0 21.0 0.00 0.00 0.00 29 1018.0
20190318074334 53 229 11.0 25.0 0.00 0.02 0.00 28 1017.9
20190318073344 54 224 13.0 25.0 0.00 0.02 0.00 28 1017.8
20190318072332 54 186 12.0 23.0 0.00 0.02 0.00 27 1017.8
20190318071327 55 196 11.0 28.0 0.00 0.02 0.00 26 1017.7
20190318070417 55 171 10.0 26.0 0.00 0.02 0.00 26 1017.6
20190318065343 55 203 12.0 20.0 0.00 0.02 0.00 25 1017.6
20190318064332 55 202 9.0 23.0 0.00 0.02 0.00 24 1017.6
20190318063325 56 206 14.0 21.0 0.00 0.02 0.00 23 1017.6
20190318062354 55 159 10.0 20.0 0.00 0.02 0.00 30 1017.5
20190318060332 56 136 10.0 23.0 0.00 0.02 0.00 26 1017.5
20190318055326 56 145 8.0 20.0 0.00 0.02 0.00 27 1017.5
20190318054335 56 146 5.0 18.0 0.00 0.02 0.00 27 1017.6
20190318053324 57 202 9.0 17.0 0.00 0.02 0.00 27 1017.8
20190318051347 55 119 14.0 20.0 0.00 0.02 0.00 29 1017.9
20190318050336 55 180 11.0 23.0 0.00 0.02 0.00 29 1018.0
20190318043329 54 175 13.0 23.0 0.00 0.02 0.00 28 1018.4
20190318042400 54 157 10.0 22.0 0.00 0.02 0.00 28 1018.6
20190318041327 54 175 7.0 24.0 0.00 0.02 0.00 29 1018.9
20190318040337 54 163 13.0 21.0 0.00 0.02 0.00 28 1019.1
20190318034339 53 161 8.0 19.0 0.00 0.02 0.00 29 1019.5
20190318033348 52 146 13.0 20.0 0.00 0.02 0.00 29 1019.8
20190318032337 51 144 13.0 25.0 0.00 0.02 0.00 30 1020.0
20190318024412 49 158 11.0 26.0 0.00 0.02 0.00 31 1020.9
20190318023340 49 157 16.0 26.0 0.00 0.02 0.00 30 1021.0
20190318022409 48 163 15.0 29.0 0.00 0.02 0.00 30 1021.2
20190318021341 49 140 10.0 22.0 0.00 0.02 0.00 29 1021.3
20190318020350 49 110 14.0 23.0 0.00 0.02 0.00 26 1021.7
20190318015338 48 65 4.0 24.0 0.00 0.02 0.00 39 1021.9
20190318014347 46 219 2.0 9.0 0.00 0.02 0.00 39 1022.1
20190318013340 44 26 4.0 7.0 0.00 0.02 0.00 48 1022.2
20190318011400 42 86 1.0 7.0 0.00 0.02 0.00 55 1022.7
20190318010348 40 334 1.0 7.0 0.00 0.02 0.00 55 1023.2
20190318005341 39 39 0.0 6.0 0.00 0.02 0.00 56 1023.2
20190318002324 37 147 0.0 3.0 0.00 0.02 0.00 58 1023.0
20190318001334 36 146 0.0 6.0 0.00 0.02 0.00 60 1023.2
20190318000328 36 134 3.0 5.0 0.00 0.02 0.00 62 1023.4
20190317235336 35 219 1.0 4.0 0.00 0.02 0.00 62 1023.6
20190317234425 35 138 0.0 4.0 0.00 0.02 0.00 64 1023.7
20190317231412 33 28 0.0 5.0 0.00 0.02 0.00 67 1023.9
20190317230359 33 36 1.0 5.0 0.00 0.02 0.00 69 1023.9
20190317223344 31 51 2.0 7.0 0.00 0.02 0.00 68 1023.9
20190317221446 30 30 5.0 9.0 0.00 0.02 0.00 70 1023.8
20190317220353 30 35 4.0 7.0 0.00 0.02 0.00 71 1023.7
20190317215422 29 41 1.0 5.0 0.00 0.02 0.00 72 1023.6
20190317214330 28 26 4.0 5.0 0.00 0.02 0.00 73 1023.5
20190317212332 28 42 3.0 5.0 0.00 0.02 0.00 73 1023.6
20190317205358 28 142 2.0 3.0 0.00 0.02 0.00 78 1023.5
20190317203419 28 142 0.0 0.0 0.00 0.02 0.00 83 1023.4
20190317202327 28 141 0.0 0.0 0.00 0.02 0.00 85 1023.5
20190317201336 27 141 0.0 0.0 0.00 0.02 0.00 87 1023.6